Location: Newark
(48.1500°N, 13.1167°E)
Time: 07:05:11
(UTC+00:00)

KAITUO 1B - Pass Details

Date: 28 November 2021
Orbit: 486 x 507 km, 97.4° (Epoch: 18 January)

Event Time Altitude Azimuth Distance (km) Brightness Sun altitude
Rises 05:12:58 0° 20° (NNE) 2,637 ? -12.9°
Reaches altitude 10° 05:15:12 10° 29° (NNE) 1,744 ? -12.6°
Maximum altitude 05:18:42 36° 97° (E) 825 ? -12.0°
Drops below altitude 10° 05:22:09 10° 166° (SSE) 1,723 ? -11.5°
Sets 05:24:20 0° 175° (S) 2,600 ? -11.1°
